User: anonymous   Login
Location: *
(40.7873°S, 98.7174°E)
Time: 07:12:12
(UTC+00:00)
Language:

Cosmos 1812 - Orbit

View from above orbital plane
View from above orbital plane
View from above satellite
View from above satellite

Ground track
Ground track

The orbit data is extracted from the following two-line orbital elements,

1 17295U 87003A   22228.61366894  .00003495  00000-0  17013-3 0  9997
2 17295  82.5113  85.9947 0004555  77.2384 282.9358 15.18066577944424
Epoch (UTC): 16 August 2022 14:43:40
Eccentricity: 0.0004555
inclination: 82.5113°
perigee height: 508 km
apogee height: 515 km
right ascension of ascending node: 85.9947°
argument of perigee: 77.2384°
revolutions per day: 15.18066577
mean anomaly at epoch: 282.9358°
orbit number at epoch: 94442

The dashed part of the orbit path shows where the satellite is in the earth's shadow,  

DLR